TimePST,TemperatureF,Dew PointF,Humidity,Sea Level PressureIn,VisibilityMPH,Wind Direction,Wind SpeedMPH,Gust SpeedMPH,PrecipitationIn,Events,Conditions,WindDirDegrees,DateUTC
12:53 AM,44.1,37.0,76,29.90,6.0,East,8.1,-,N/A,,Haze,100,2012-11-17 08:53:00
1:53 AM,44.1,37.0,76,29.88,6.0,ESE,10.4,-,N/A,,Haze,110,2012-11-17 09:53:00
2:53 AM,43.0,37.0,80,29.86,6.0,SE,9.2,-,N/A,,Haze,130,2012-11-17 10:53:00
3:53 AM,43.0,37.0,80,29.84,9.0,ESE,8.1,-,N/A,,Overcast,120,2012-11-17 11:53:00
5:53 AM,43.0,37.9,82,29.80,10.0,Calm,Calm,-,0.00,,Overcast,0,2012-11-17 13:53:00
6:53 AM,42.1,39.0,89,29.78,4.0,Calm,Calm,-,0.07,Rain,Light Rain,0,2012-11-17 14:53:00
7:53 AM,42.1,39.9,92,29.77,7.0,Calm,Calm,-,0.01,,Overcast,0,2012-11-17 15:53:00
8:53 AM,43.0,39.9,89,29.75,9.0,Calm,Calm,-,N/A,,Overcast,0,2012-11-17 16:53:00
9:53 AM,44.1,39.0,82,29.73,6.0,ESE,8.1,-,N/A,,Haze,110,2012-11-17 17:53:00
10:53 AM,44.1,39.0,82,29.70,5.0,ESE,6.9,-,0.00,Rain,Light Rain,120,2012-11-17 18:53:00
11:53 AM,45.0,37.9,76,29.68,5.0,Calm,Calm,-,0.00,,Haze,0,2012-11-17 19:53:00
12:53 PM,45.0,37.9,76,29.66,5.0,Calm,Calm,-,N/A,,Haze,0,2012-11-17 20:53:00
1:53 PM,45.0,39.0,80,29.62,5.0,Calm,Calm,-,N/A,,Haze,0,2012-11-17 21:53:00
2:53 PM,45.0,39.0,80,29.65,4.0,Calm,Calm,-,0.00,Rain,Light Rain,0,2012-11-17 22:53:00
3:05 PM,44.6,39.2,81,29.65,2.0,WNW,4.6,-,0.02,Rain,Rain,290,2012-11-17 23:05:00
3:20 PM,44.6,41.0,87,29.65,3.0,Variable,3.5,-,0.04,Rain,Light Rain,0,2012-11-17 23:20:00
3:53 PM,45.0,39.9,82,29.66,10.0,NW,10.4,-,0.04,,Overcast,310,2012-11-17 23:53:00
4:53 PM,44.1,41.0,89,29.67,8.0,SSW,6.9,-,0.00,,Overcast,200,2012-11-18 00:53:00
5:53 PM,45.0,39.9,82,29.68,10.0,Calm,Calm,-,0.00,Rain,Light Rain,0,2012-11-18 01:53:00
6:53 PM,45.0,39.0,80,29.70,10.0,WNW,9.2,-,0.00,,Overcast,300,2012-11-18 02:53:00
7:53 PM,44.1,37.9,79,29.72,10.0,WSW,3.5,-,N/A,,Clear,250,2012-11-18 03:53:00
8:53 PM,42.1,37.9,85,29.75,10.0,Variable,3.5,-,N/A,,Clear,0,2012-11-18 04:53:00
9:53 PM,39.0,35.1,86,29.78,10.0,SSE,8.1,-,N/A,,Clear,150,2012-11-18 05:53:00
10:53 PM,37.9,35.1,89,29.80,10.0,Calm,Calm,-,N/A,,Mostly Cloudy,0,2012-11-18 06:53:00
11:53 PM,39.0,36.0,89,29.82,10.0,Variable,3.5,-,N/A,,Overcast,0,2012-11-18 07:53:00